| time (UTC) | temp C | wind direction | speed KPH | gust KPH | rain 1hr cm | rain 24hr cm | rain mn cm | humidity % | barometer mb |
| 20260831183323 | 34 | 99 | 11.3 | 20.9 | 0.00 | 0.00 | 0.00 | 69 | 1015.9 |
| 20260831182828 | 33 | 106 | 9.7 | 27.4 | 0.00 | 0.00 | 0.00 | 70 | 1016.0 |
| 20260831182342 | 33 | 125 | 8.0 | 27.4 | 0.00 | 0.00 | 0.00 | 70 | 1016.1 |
| 20260831181848 | 33 | 126 | 16.1 | 25.7 | 0.00 | 0.00 | 0.00 | 71 | 1016.1 |
| 20260831181340 | 33 | 151 | 8.0 | 25.7 | 0.00 | 0.00 | 0.00 | 71 | 1016.1 |
| 20260831180829 | 33 | 123 | 12.9 | 25.7 | 0.00 | 0.00 | 0.00 | 72 | 1016.1 |
| 20260831180334 | 33 | 118 | 6.4 | 22.5 | 0.00 | 0.00 | 0.00 | 72 | 1016.1 |
| 20260831175820 | 33 | 146 | 12.9 | 22.5 | 0.00 | 0.00 | 0.00 | 73 | 1016.2 |
| 20260831175330 | 33 | 62 | 4.8 | 20.9 | 0.00 | 0.00 | 0.00 | 73 | 1016.3 |
| 20260831174836 | 33 | 105 | 11.3 | 20.9 | 0.00 | 0.00 | 0.00 | 74 | 1016.4 |
| 20260831174345 | 33 | 93 | 4.8 | 12.9 | 0.00 | 0.00 | 0.00 | 74 | 1016.4 |
| 20260831173830 | 33 | 139 | 6.4 | 14.5 | 0.00 | 0.00 | 0.00 | 74 | 1016.5 |
| 20260831173345 | 33 | 129 | 6.4 | 16.1 | 0.00 | 0.00 | 0.00 | 75 | 1016.5 |
| 20260831172829 | 33 | 161 | 6.4 | 20.9 | 0.00 | 0.00 | 0.00 | 75 | 1016.6 |
| 20260831172333 | 32 | 155 | 9.7 | 20.9 | 0.00 | 0.00 | 0.00 | 76 | 1016.6 |
| 20260831171825 | 32 | 93 | 11.3 | 17.7 | 0.00 | 0.00 | 0.00 | 76 | 1016.7 |
| 20260831171333 | 32 | 86 | 9.7 | 17.7 | 0.00 | 0.00 | 0.00 | 76 | 1016.7 |
| 20260831170843 | 32 | 92 | 4.8 | 12.9 | 0.00 | 0.00 | 0.00 | 77 | 1016.8 |
| 20260831170333 | 32 | 140 | 4.8 | 11.3 | 0.00 | 0.00 | 0.00 | 78 | 1016.8 |
| 20260831165819 | 32 | 71 | 4.8 | 11.3 | 0.00 | 0.00 | 0.00 | 78 | 1016.9 |
| 20260831165329 | 32 | 212 | 1.6 | 12.9 | 0.00 | 0.00 | 0.00 | 78 | 1017.0 |
| 20260831164833 | 32 | 188 | 8.0 | 14.5 | 0.00 | 0.00 | 0.00 | 79 | 1017.0 |
| 20260831164347 | 32 | 219 | 6.4 | 14.5 | 0.00 | 0.00 | 0.00 | 79 | 1017.0 |
| 20260831163859 | 32 | 231 | 6.4 | 14.5 | 0.00 | 0.00 | 0.00 | 79 | 1017.0 |
| 20260831163323 | 31 | 161 | 9.7 | 14.5 | 0.00 | 0.00 | 0.00 | 79 | 1017.0 |
| 20260831162828 | 31 | 103 | 4.8 | 12.9 | 0.00 | 0.00 | 0.00 | 80 | 1017.0 |
| 20260831162334 | 31 | 144 | 8.0 | 14.5 | 0.00 | 0.00 | 0.00 | 80 | 1017.1 |
| 20260831161818 | 31 | 132 | 11.3 | 14.5 | 0.00 | 0.00 | 0.00 | 80 | 1017.0 |
| 20260831161323 | 31 | 254 | 4.8 | 12.9 | 0.00 | 0.00 | 0.00 | 80 | 1017.0 |
| 20260831160834 | 31 | 145 | 3.2 | 8.0 | 0.00 | 0.00 | 0.00 | 80 | 1017.0 |
| 20260831160319 | 31 | 90 | 3.2 | 8.0 | 0.00 | 0.00 | 0.00 | 81 | 1017.0 |
| 20260831155822 | 31 | 178 | 1.6 | 14.5 | 0.00 | 0.00 | 0.00 | 81 | 1017.0 |
| 20260831155335 | 31 | 291 | 8.0 | 14.5 | 0.00 | 0.00 | 0.00 | 81 | 1017.0 |
| 20260831154842 | 30 | 238 | 4.8 | 14.5 | 0.00 | 0.00 | 0.00 | 81 | 1016.9 |
| 20260831154327 | 30 | 238 | 6.4 | 14.5 | 0.00 | 0.00 | 0.00 | 81 | 1016.8 |
| 20260831153833 | 30 | 220 | 3.2 | 6.4 | 0.00 | 0.00 | 0.00 | 81 | 1016.9 |
| 20260831153318 | 30 | 104 | 4.8 | 14.5 | 0.00 | 0.00 | 0.00 | 81 | 1016.8 |
| 20260831152830 | 30 | 350 | 3.2 | 14.5 | 0.00 | 0.00 | 0.00 | 81 | 1016.9 |
| 20260831152333 | 30 | 245 | 6.4 | 12.9 | 0.00 | 0.00 | 0.00 | 81 | 1016.9 |
| 20260831151819 | 29 | 246 | 0.0 | 11.3 | 0.00 | 0.00 | 0.00 | 81 | 1016.8 |
| 20260831151350 | 29 | 242 | 6.4 | 8.0 | 0.00 | 0.00 | 0.00 | 81 | 1016.9 |
| 20260831150845 | 29 | 268 | 4.8 | 14.5 | 0.00 | 0.00 | 0.00 | 81 | 1016.9 |
| 20260831150327 | 29 | 234 | 3.2 | 14.5 | 0.00 | 0.00 | 0.00 | 81 | 1016.9 |
| 20260831145819 | 29 | 246 | 6.4 | 12.9 | 0.00 | 0.00 | 0.00 | 81 | 1016.9 |
| 20260831145319 | 28 | 233 | 6.4 | 9.7 | 0.00 | 0.00 | 0.00 | 81 | 1016.9 |
| 20260831144831 | 28 | 153 | 4.8 | 9.7 | 0.00 | 0.00 | 0.00 | 81 | 1016.9 |
| 20260831144336 | 28 | 269 | 1.6 | 6.4 | 0.00 | 0.00 | 0.00 | 81 | 1016.8 |
| 20260831143821 | 28 | 270 | 3.2 | 9.7 | 0.00 | 0.00 | 0.00 | 81 | 1016.8 |
| 20260831143353 | 28 | 274 | 4.8 | 11.3 | 0.00 | 0.00 | 0.00 | 80 | 1016.8 |
| 20260831142820 | 28 | 261 | 4.8 | 11.3 | 0.00 | 0.00 | 0.00 | 80 | 1016.8 |
| 20260831142326 | 28 | 240 | 3.2 | 8.0 | 0.00 | 0.00 | 0.00 | 80 | 1016.8 |
| 20260831141858 | 27 | 171 | 3.2 | 8.0 | 0.00 | 0.00 | 0.00 | 80 | 1016.8 |
| 20260831141322 | 27 | 182 | 3.2 | 9.7 | 0.00 | 0.00 | 0.00 | 80 | 1016.8 |
| 20260831140834 | 27 | 220 | 3.2 | 9.7 | 0.00 | 0.00 | 0.00 | 80 | 1016.8 |
| 20260831140339 | 27 | 229 | 0.0 | 4.8 | 0.00 | 0.00 | 0.00 | 80 | 1016.7 |
| 20260831135850 | 27 | 230 | 1.6 | 8.0 | 0.00 | 0.00 | 0.00 | 79 | 1016.6 |
| 20260831135341 | 26 | 227 | 1.6 | 6.4 | 0.00 | 0.00 | 0.00 | 79 | 1016.7 |
| 20260831134827 | 26 | 215 | 0.0 | 1.6 | 0.00 | 0.00 | 0.00 | 79 | 1016.6 |
| 20260831134325 | 26 | 216 | 0.0 | 1.6 | 0.00 | 0.00 | 0.00 | 79 | 1016.6 |
| 20260831133836 | 26 | 215 | 0.0 | 3.2 | 0.00 | 0.00 | 0.00 | 79 | 1016.5 |
| 20260831133321 | 26 | 214 | 1.6 | 3.2 | 0.00 | 0.00 | 0.00 | 79 | 1016.5 |
| 20260831132824 | 25 | 214 | 0.0 | 1.6 | 0.00 | 0.00 | 0.00 | 79 | 1016.5 |
| 20260831132318 | 25 | 214 | 0.0 | 4.8 | 0.00 | 0.00 | 0.00 | 78 | 1016.4 |
| 20260831131822 | 25 | 214 | 0.0 | 4.8 | 0.00 | 0.00 | 0.00 | 78 | 1016.4 |
| 20260831131327 | 25 | 215 | 0.0 | 0.0 | 0.00 | 0.00 | 0.00 | 78 | 1016.3 |
| 20260831130841 | 25 | 215 | 0.0 | 0.0 | 0.00 | 0.00 | 0.00 | 78 | 1016.3 |
| 20260831130325 | 24 | 215 | 0.0 | 0.0 | 0.00 | 0.00 | 0.00 | 78 | 1016.2 |
| 20260831125829 | 23 | 215 | 0.0 | 0.0 | 0.00 | 0.00 | 0.00 | 78 | 1016.1 |
| 20260831125318 | 23 | 215 | 0.0 | 0.0 | 0.00 | 0.00 | 0.00 | 77 | 1016.1 |
| 20260831124820 | 23 | 215 | 0.0 | 0.0 | 0.00 | 0.00 | 0.00 | 77 | 1016.0 |
| 20260831124332 | 23 | 215 | 0.0 | 0.0 | 0.00 | 0.00 | 0.00 | 77 | 1015.9 |
| 20260831123818 | 23 | 215 | 0.0 | 0.0 | 0.00 | 0.00 | 0.00 | 77 | 1015.9 |
| 20260831123320 | 23 | 215 | 0.0 | 0.0 | 0.00 | 0.00 | 0.00 | 76 | 1016.0 |
| 20260831122834 | 23 | 215 | 0.0 | 3.2 | 0.00 | 0.00 | 0.00 | 76 | 1016.0 |
| 20260831122318 | 23 | 215 | 1.6 | 3.2 | 0.00 | 0.00 | 0.00 | 76 | 1015.8 |
| 20260831121832 | 23 | 216 | 0.0 | 0.0 | 0.00 | 0.00 | 0.00 | 76 | 1015.7 |
| 20260831121337 | 23 | 216 | 0.0 | 0.0 | 0.00 | 0.00 | 0.00 | 76 | 1015.6 |
| 20260831120826 | 23 | 216 | 0.0 | 0.0 | 0.00 | 0.00 | 0.00 | 76 | 1015.6 |
| 20260831120334 | 23 | 216 | 0.0 | 1.6 | 0.00 | 0.00 | 0.00 | 75 | 1015.5 |
| 20260831115823 | 23 | 216 | 0.0 | 3.2 | 0.00 | 0.00 | 0.00 | 75 | 1015.5 |
| 20260831115325 | 23 | 216 | 0.0 | 4.8 | 0.00 | 0.00 | 0.00 | 75 | 1015.5 |
| 20260831114841 | 24 | 216 | 3.2 | 4.8 | 0.00 | 0.00 | 0.00 | 75 | 1015.5 |
| 20260831114347 | 24 | 215 | 3.2 | 4.8 | 0.00 | 0.00 | 0.00 | 75 | 1015.5 |
| 20260831113842 | 24 | 215 | 1.6 | 4.8 | 0.00 | 0.00 | 0.00 | 75 | 1015.5 |
| 20260831113331 | 24 | 215 | 1.6 | 4.8 | 0.00 | 0.00 | 0.00 | 75 | 1015.5 |
| 20260831112822 | 24 | 215 | 3.2 | 4.8 | 0.00 | 0.00 | 0.00 | 74 | 1015.4 |
| 20260831112327 | 24 | 215 | 3.2 | 6.4 | 0.00 | 0.00 | 0.00 | 74 | 1015.4 |
| 20260831111839 | 24 | 214 | 3.2 | 6.4 | 0.00 | 0.00 | 0.00 | 74 | 1015.4 |
| 20260831111325 | 24 | 214 | 4.8 | 6.4 | 0.00 | 0.00 | 0.00 | 74 | 1015.3 |
| 20260831110830 | 24 | 213 | 3.2 | 6.4 | 0.00 | 0.00 | 0.00 | 74 | 1015.2 |
| 20260831110318 | 24 | 214 | 4.8 | 8.0 | 0.00 | 0.00 | 0.00 | 74 | 1015.2 |
| 20260831030828 | 28 | 163 | 6.4 | 12.9 | 0.00 | 0.00 | 0.00 | 51 | 1014.1 |
| 20260831030331 | 28 | 171 | 6.4 | 11.3 | 0.00 | 0.00 | 0.00 | 51 | 1014.0 |
| 20260831025826 | 28 | 172 | 4.8 | 9.7 | 0.00 | 0.00 | 0.00 | 51 | 1013.9 |
| 20260831025401 | 28 | 182 | 4.8 | 6.4 | 0.00 | 0.00 | 0.00 | 50 | 1013.8 |
| 20260831024844 | 28 | 178 | 3.2 | 6.4 | 0.00 | 0.00 | 0.00 | 50 | 1013.6 |
| 20260831024326 | 29 | 178 | 4.8 | 6.4 | 0.00 | 0.00 | 0.00 | 50 | 1013.5 |
| 20260831023828 | 29 | 171 | 4.8 | 9.7 | 0.00 | 0.00 | 0.00 | 49 | 1013.4 |
| 20260831023333 | 29 | 184 | 4.8 | 9.7 | 0.00 | 0.00 | 0.00 | 49 | 1013.4 |
| 20260831022838 | 29 | 177 | 4.8 | 8.0 | 0.00 | 0.00 | 0.00 | 49 | 1013.3 |
| 20260831022340 | 30 | 180 | 4.8 | 6.4 | 0.00 | 0.00 | 0.00 | 49 | 1013.2 |
| 20260831021831 | 30 | 176 | 3.2 | 6.4 | 0.00 | 0.00 | 0.00 | 48 | 1013.2 |
| 20260831021329 | 30 | 178 | 3.2 | 6.4 | 0.00 | 0.00 | 0.00 | 48 | 1013.2 |
| 20260831020835 | 30 | 175 | 4.8 | 6.4 | 0.00 | 0.00 | 0.00 | 48 | 1013.1 |
| 20260831020320 | 30 | 171 | 4.8 | 6.4 | 0.00 | 0.00 | 0.00 | 48 | 1013.1 |
| 20260831015826 | 31 | 162 | 3.2 | 8.0 | 0.00 | 0.00 | 0.00 | 48 | 1013.0 |
| 20260831015327 | 31 | 163 | 3.2 | 8.0 | 0.00 | 0.00 | 0.00 | 48 | 1013.0 |
| 20260831014828 | 31 | 164 | 3.2 | 8.0 | 0.00 | 0.00 | 0.00 | 48 | 1012.9 |
| 20260831014335 | 31 | 166 | 4.8 | 8.0 | 0.00 | 0.00 | 0.00 | 47 | 1012.8 |
| 20260831013846 | 31 | 161 | 3.2 | 8.0 | 0.00 | 0.00 | 0.00 | 47 | 1012.9 |
| 20260831013327 | 31 | 158 | 3.2 | 11.3 | 0.00 | 0.00 | 0.00 | 47 | 1012.8 |
| 20260831012833 | 32 | 157 | 4.8 | 11.3 | 0.00 | 0.00 | 0.00 | 47 | 1012.8 |
| 20260831012335 | 32 | 142 | 4.8 | 12.9 | 0.00 | 0.00 | 0.00 | 47 | 1012.8 |
| 20260831011907 | 32 | 142 | 6.4 | 12.9 | 0.00 | 0.00 | 0.00 | 47 | 1012.8 |
| 20260831011329 | 32 | 163 | 6.4 | 12.9 | 0.00 | 0.00 | 0.00 | 47 | 1012.7 |
| 20260831010834 | 32 | 150 | 6.4 | 14.5 | 0.00 | 0.00 | 0.00 | 46 | 1012.7 |
| 20260831010320 | 32 | 129 | 6.4 | 14.5 | 0.00 | 0.00 | 0.00 | 46 | 1012.7 |
| 20260831005827 | 33 | 122 | 6.4 | 12.9 | 0.00 | 0.00 | 0.00 | 46 | 1012.7 |
| 20260831005330 | 33 | 153 | 4.8 | 11.3 | 0.00 | 0.00 | 0.00 | 46 | 1012.7 |
| 20260831004834 | 33 | 129 | 6.4 | 12.9 | 0.00 | 0.00 | 0.00 | 46 | 1012.6 |
| 20260831004321 | 33 | 133 | 6.4 | 14.5 | 0.00 | 0.00 | 0.00 | 46 | 1012.5 |
| 20260831003828 | 33 | 148 | 8.0 | 14.5 | 0.00 | 0.00 | 0.00 | 46 | 1012.5 |
| 20260831003327 | 33 | 121 | 6.4 | 12.9 | 0.00 | 0.00 | 0.00 | 46 | 1012.5 |
| 20260831002834 | 34 | 140 | 6.4 | 12.9 | 0.00 | 0.00 | 0.00 | 46 | 1012.4 |
| 20260831002335 | 34 | 129 | 6.4 | 12.9 | 0.00 | 0.00 | 0.00 | 46 | 1012.5 |
| 20260831001817 | 34 | 143 | 6.4 | 12.9 | 0.00 | 0.00 | 0.00 | 46 | 1012.5 |
| 20260831001330 | 34 | 109 | 6.4 | 12.9 | 0.00 | 0.00 | 0.00 | 46 | 1012.6 |
| 20260831000859 | 35 | 194 | 8.0 | 17.7 | 0.00 | 0.00 | 0.00 | 46 | 1012.5 |
| 20260831000325 | 35 | 174 | 8.0 | 17.7 | 0.00 | 0.00 | 0.00 | 46 | 1012.6 |
| 20260830235826 | 35 | 123 | 9.7 | 17.7 | 0.00 | 0.00 | 0.00 | 46 | 1012.6 |
| 20260830235328 | 35 | 141 | 9.7 | 19.3 | 0.00 | 0.00 | 0.00 | 46 | 1012.6 |
| 20260830234839 | 35 | 97 | 9.7 | 19.3 | 0.00 | 0.00 | 0.00 | 46 | 1012.5 |
| 20260830234327 | 35 | 178 | 9.7 | 17.7 | 0.00 | 0.00 | 0.00 | 46 | 1012.6 |
| 20260830233831 | 35 | 123 | 6.4 | 20.9 | 0.00 | 0.00 | 0.00 | 47 | 1012.5 |
| 20260830233337 | 35 | 88 | 12.9 | 20.9 | 0.00 | 0.00 | 0.00 | 47 | 1012.5 |
| 20260830232851 | 36 | 188 | 11.3 | 24.1 | 0.00 | 0.00 | 0.00 | 47 | 1012.5 |
| 20260830232349 | 36 | 180 | 12.9 | 24.1 | 0.00 | 0.00 | 0.00 | 47 | 1012.5 |
| 20260830231835 | 36 | 105 | 9.7 | 22.5 | 0.00 | 0.00 | 0.00 | 47 | 1012.5 |
| 20260830231338 | 36 | 109 | 11.3 | 20.9 | 0.00 | 0.00 | 0.00 | 48 | 1012.5 |
| 20260830230829 | 36 | 177 | 9.7 | 19.3 | 0.00 | 0.00 | 0.00 | 48 | 1012.5 |
| 20260830230335 | 36 | 128 | 3.2 | 17.7 | 0.00 | 0.00 | 0.00 | 48 | 1012.4 |
| 20260830225822 | 36 | 166 | 11.3 | 19.3 | 0.00 | 0.00 | 0.00 | 48 | 1012.5 |
| 20260830225325 | 36 | 140 | 8.0 | 19.3 | 0.00 | 0.00 | 0.00 | 49 | 1012.5 |
| 20260830224829 | 36 | 171 | 9.7 | 17.7 | 0.00 | 0.00 | 0.00 | 49 | 1012.5 |
| 20260830224335 | 36 | 153 | 9.7 | 24.1 | 0.00 | 0.00 | 0.00 | 49 | 1012.6 |
| 20260830223821 | 36 | 148 | 6.4 | 20.9 | 0.00 | 0.00 | 0.00 | 50 | 1012.7 |
| 20260830223327 | 36 | 130 | 4.8 | 19.3 | 0.00 | 0.00 | 0.00 | 50 | 1012.7 |
| 20260830222833 | 36 | 159 | 11.3 | 19.3 | 0.00 | 0.00 | 0.00 | 51 | 1012.7 |
| 20260830222337 | 36 | 186 | 9.7 | 16.1 | 0.00 | 0.00 | 0.00 | 51 | 1012.7 |
| 20260830221823 | 36 | 186 | 3.2 | 24.1 | 0.00 | 0.00 | 0.00 | 51 | 1012.7 |
| 20260830221329 | 36 | 111 | 14.5 | 24.1 | 0.00 | 0.00 | 0.00 | 52 | 1012.7 |
| 20260830220858 | 36 | 143 | 9.7 | 22.5 | 0.00 | 0.00 | 0.00 | 52 | 1012.7 |
| 20260830220338 | 36 | 174 | 12.9 | 20.9 | 0.00 | 0.00 | 0.00 | 52 | 1012.8 |
| 20260830215823 | 36 | 138 | 8.0 | 16.1 | 0.00 | 0.00 | 0.00 | 53 | 1012.9 |
| 20260830215322 | 36 | 150 | 6.4 | 19.3 | 0.00 | 0.00 | 0.00 | 53 | 1012.9 |
| 20260830214824 | 36 | 167 | 9.7 | 19.3 | 0.00 | 0.00 | 0.00 | 54 | 1013.0 |
| 20260830214335 | 36 | 111 | 6.4 | 12.9 | 0.00 | 0.00 | 0.00 | 54 | 1013.0 |
| 20260830213841 | 36 | 200 | 6.4 | 25.7 | 0.00 | 0.00 | 0.00 | 55 | 1013.1 |
| 20260830213328 | 36 | 165 | 12.9 | 25.7 | 0.00 | 0.00 | 0.00 | 55 | 1013.1 |
| 20260830212830 | 36 | 151 | 6.4 | 19.3 | 0.00 | 0.00 | 0.00 | 55 | 1013.2 |
| 20260830212330 | 36 | 205 | 4.8 | 16.1 | 0.00 | 0.00 | 0.00 | 56 | 1013.2 |
| 20260830211836 | 36 | 151 | 8.0 | 17.7 | 0.00 | 0.00 | 0.00 | 57 | 1013.2 |
| 20260830211349 | 36 | 126 | 6.4 | 17.7 | 0.00 | 0.00 | 0.00 | 57 | 1013.3 |
| 20260830210845 | 36 | 217 | 11.3 | 17.7 | 0.00 | 0.00 | 0.00 | 57 | 1013.3 |
| 20260830210328 | 35 | 192 | 8.0 | 20.9 | 0.00 | 0.00 | 0.00 | 58 | 1013.3 |
| 20260830205836 | 35 | 150 | 9.7 | 20.9 | 0.00 | 0.00 | 0.00 | 58 | 1013.4 |
| 20260830205347 | 35 | 186 | 8.0 | 17.7 | 0.00 | 0.00 | 0.00 | 58 | 1013.5 |
| 20260830204829 | 35 | 227 | 9.7 | 17.7 | 0.00 | 0.00 | 0.00 | 59 | 1013.5 |
| 20260830204355 | 36 | 179 | 4.8 | 25.7 | 0.00 | 0.00 | 0.00 | 59 | 1013.7 |
| 20260830203819 | 36 | 200 | 9.7 | 25.7 | 0.00 | 0.00 | 0.00 | 60 | 1013.7 |
| 20260830203321 | 36 | 105 | 9.7 | 29.0 | 0.00 | 0.00 | 0.00 | 61 | 1013.8 |
| 20260830202833 | 35 | 126 | 9.7 | 29.0 | 0.00 | 0.00 | 0.00 | 61 | 1013.8 |
| 20260830202335 | 35 | 178 | 3.2 | 24.1 | 0.00 | 0.00 | 0.00 | 62 | 1014.0 |
| 20260830201822 | 35 | 176 | 11.3 | 24.1 | 0.00 | 0.00 | 0.00 | 63 | 1014.0 |
| 20260830201327 | 35 | 238 | 6.4 | 20.9 | 0.00 | 0.00 | 0.00 | 62 | 1014.2 |
| 20260830200833 | 35 | 109 | 11.3 | 20.9 | 0.00 | 0.00 | 0.00 | 63 | 1014.2 |
| 20260830200338 | 35 | 127 | 12.9 | 20.9 | 0.00 | 0.00 | 0.00 | 64 | 1014.3 |
| 20260830195824 | 35 | 128 | 11.3 | 19.3 | 0.00 | 0.00 | 0.00 | 64 | 1014.4 |
| 20260830195323 | 35 | 144 | 9.7 | 19.3 | 0.00 | 0.00 | 0.00 | 65 | 1014.5 |
| 20260830194850 | 35 | 200 | 8.0 | 24.1 | 0.00 | 0.00 | 0.00 | 65 | 1014.6 |
| 20260830194336 | 35 | 118 | 8.0 | 16.1 | 0.00 | 0.00 | 0.00 | 65 | 1014.6 |
| 20260830193823 | 35 | 135 | 9.7 | 14.5 | 0.00 | 0.00 | 0.00 | 66 | 1014.6 |
| 20260830193354 | 35 | 135 | 3.2 | 17.7 | 0.00 | 0.00 | 0.00 | 67 | 1014.7 |
| 20260830192839 | 35 | 134 | 8.0 | 17.7 | 0.00 | 0.00 | 0.00 | 67 | 1014.8 |
| 20260830192343 | 35 | 155 | 8.0 | 16.1 | 0.00 | 0.00 | 0.00 | 68 | 1014.8 |
| 20260830191829 | 34 | 153 | 9.7 | 16.1 | 0.00 | 0.00 | 0.00 | 69 | 1014.9 |
| 20260830191332 | 34 | 134 | 8.0 | 16.1 | 0.00 | 0.00 | 0.00 | 69 | 1015.0 |
| 20260830190836 | 34 | 165 | 8.0 | 16.1 | 0.00 | 0.00 | 0.00 | 69 | 1015.0 |
| 20260830190322 | 34 | 186 | 8.0 | 19.3 | 0.00 | 0.00 | 0.00 | 70 | 1015.2 |
| 20260830185828 | 34 | 121 | 9.7 | 19.3 | 0.00 | 0.00 | 0.00 | 70 | 1015.3 |
| 20260830185329 | 33 | 172 | 8.0 | 14.5 | 0.00 | 0.00 | 0.00 | 71 | 1015.4 |
| 20260830184835 | 33 | 185 | 6.4 | 14.5 | 0.00 | 0.00 | 0.00 | 71 | 1015.5 |
| 20260830184406 | 33 | 302 | 4.8 | 16.1 | 0.00 | 0.00 | 0.00 | 72 | 1015.5 |
| 20260830183849 | 33 | 230 | 8.0 | 16.1 | 0.00 | 0.00 | 0.00 | 72 | 1015.7 |